Weather History for Gillette, WY

Change the Weather History Date:

Sunday, March 3, 2013

  Actual Average Record
Temperature  
Mean Temperature 42 °F 31 °F  
Max Temperature 56 °F 43 °F 82 °F (2006)
Min Temperature 28 °F 20 °F -23 °F (1960)
Degree Days  
Heating Degree Days 23 34  
Month to date heating degree days 76 102  
Since 1 July heating degree days 5199 5510  
Cooling Degree Days 0 0  
Month to date cooling degree days 0 0  
Year to date cooling degree days 0 0  
Moisture  
Dew Point 29 °F    
Average Humidity 62    
Maximum Humidity 92    
Minimum Humidity 32    
Precipitation  
Precipitation T in 0.02 in 0.30 in (1946)
Month to date precipitation 0.01 0.06  
Year to date precipitation 1.14 0.84  
Sea Level Pressure  
Sea Level Pressure 29.69 in    
Wind  
Wind Speed 6 mph (West)    
Max Wind Speed 41 mph    
Max Gust Speed 54 mph    
Visibility 9 miles    
Events Snow , Thunderstorm    
T = Trace of Precipitation, MM = Missing Value Source: NWS Daily Summary

Daily Weather History Graph

Daily Weather History Graph

Search for Another Location

Airport:

Trip Planner

Search our weather history database for the weather conditions in past years. The results will help you decide how hot, cold, wet, or windy it might be!

Date:

Astronomy

Mar. 03, 2013 Rise Set
Actual Time 6:35 AM MST 5:53 PM MST
Civil Twilight 6:06 AM MST 6:22 PM MST
Nautical Twilight 5:32 AM MST 6:55 PM MST
Astronomical Twilight 4:59 AM MST 7:29 PM MST
Moon No Moon Rise 9:37 AM MST (3/3)
Length of Visible Light 12h 16m
Length of Day
11h 17m
Waning Gibbous, 63% of the Moon is Illuminated
Mar 3
Waning Gibbous
Mar 4
Last Quarter
Mar 11
New
Mar 19
First Quarter
Mar 27
Full

Hourly Weather History & Observations

Time (MST) Temp. Windchill Dew Point Humidity Pressure Visibility Wind Dir Wind Speed Gust Speed Precip Events Conditions
12:53 AM 41.0 °F 36.4 °F 30.9 °F 67% 29.82 in 10.0 mi SSW 6.9 mph - N/A   Clear
1:53 AM 36.0 °F 33.3 °F 30.0 °F 79% 29.79 in 10.0 mi East 3.5 mph - N/A   Clear
2:53 AM 33.1 °F 30.0 °F 30.0 °F 89% 29.77 in 10.0 mi South 3.5 mph - N/A   Clear
3:53 AM 30.9 °F - 28.0 °F 89% 29.76 in 10.0 mi Calm Calm - N/A   Clear
4:53 AM 30.0 °F - 28.0 °F 92% 29.76 in 10.0 mi Calm Calm - N/A   Clear
5:53 AM 30.0 °F 25.2 °F 28.9 °F 96% 29.79 in 10.0 mi South 4.6 mph - N/A   Clear
6:53 AM 34.0 °F 28.8 °F 30.0 °F 85% 29.76 in 10.0 mi SSW 5.8 mph - N/A   Clear
7:53 AM 37.9 °F 34.4 °F 30.9 °F 76% 29.75 in 10.0 mi SW 4.6 mph - N/A   Mostly Cloudy
8:53 AM 39.9 °F - 33.1 °F 77% 29.73 in 10.0 mi Calm Calm - N/A   Overcast
9:53 AM 42.1 °F - 33.1 °F 70% 29.70 in 10.0 mi Calm Calm - N/A   Overcast
10:53 AM 46.9 °F - 32.0 °F 56% 29.64 in 10.0 mi Variable 3.5 mph - N/A   Scattered Clouds
11:53 AM 53.1 °F - 33.1 °F 47% 29.60 in 10.0 mi NE 5.8 mph - N/A   Overcast
12:53 PM 54.0 °F - 27.0 °F 35% 29.55 in 10.0 mi Calm Calm - N/A   Clear
1:53 PM 55.0 °F - 27.0 °F 34% 29.52 in 10.0 mi Variable 3.5 mph - N/A   Clear
2:53 PM 55.0 °F - 27.0 °F 34% 29.54 in 10.0 mi Calm Calm - N/A   Clear
3:53 PM 54.0 °F - 30.0 °F 40% 29.52 in 10.0 mi SW 5.8 mph - N/A   Clear
4:53 PM 55.9 °F - 28.0 °F 34% 29.50 in 10.0 mi Calm Calm - N/A   Partly Cloudy
5:53 PM 41.0 °F 38.0 °F 33.1 °F 73% 29.55 in 10.0 mi SSW 4.6 mph - N/A   Mostly Cloudy
6:27 PM 37.4 °F 23.5 °F 32.0 °F 81% 29.55 in 9.0 mi WNW 39.1 mph 54.1 mph N/A   Squalls
6:31 PM 35.6 °F 22.3 °F 30.2 °F 81% 29.58 in 6.0 mi WNW 31.1 mph 54.1 mph 0.00 in Snow , Thunderstorm Light Thunderstorms and Snow
6:53 PM 33.1 °F - 30.9 °F 92% 29.68 in - North - - 0.00 in   Unknown
7:53 PM 30.0 °F 16.3 °F 28.0 °F 92% 29.74 in 9.0 mi NNW 24.2 mph 32.2 mph N/A   Unknown
8:53 PM 28.0 °F 13.6 °F 25.0 °F 88% 29.77 in 4.0 mi NW 24.2 mph 38.0 mph 0.00 in Snow Light Snow
9:53 PM 28.0 °F 16.5 °F 26.1 °F 92% 29.81 in 8.0 mi NNW 15.0 mph - 0.00 in   Overcast
10:05 PM 28.4 °F 17.5 °F 26.6 °F 93% 29.76 in 8.0 mi NW 13.8 mph - N/A   Overcast
10:12 PM 28.4 °F 17.5 °F 24.8 °F 86% 29.77 in 9.0 mi NW 13.8 mph - N/A   Overcast
10:53 PM 28.0 °F 17.0 °F 24.1 °F 85% 29.80 in 10.0 mi NW 13.8 mph - N/A   Overcast
11:53 PM 28.0 °F 19.3 °F 23.0 °F 81% 29.80 in 10.0 mi WNW 9.2 mph - N/A   Overcast